Location: Nians�bougou
(13.2321°N, 4.9818°W)
Time: 05:15:02
(UTC+00:00)

Cosmos 1603 - Pass Details

Date: 18 February 2020
Orbit: 832 x 858 km, 71.0° (Epoch: 07 April)

Event Time Altitude Azimuth Distance (km) Brightness Sun altitude
Exits shadow 04:36:25 46° 31° (NNE) 1,133 4.4 -30.9°
Drops below altitude 10° 04:40:22 10° 20° (NNE) 2,475 6.3 -30.0°
Sets 04:42:48 0° 19° (NNE) 3,408 7.0 -29.4°
